Flag for Germany Weather past 2 weeks in Aalen, Baden-Württemberg, Germany

Now
55 °F

Fog.


Feels Like: 55 °F
Forecast: 49 / 72 °F
Wind: 3 mph from Southeast

Location: Stoetten

Current Time: Sep 17, 2014 at 12:28:49 AM

Latest Report: Sep 17, 2014 at 12:00 AM


Visibility: 2 mi

Pressure: 29.98 "Hg

Humidity: 97%

Dew point: 54 °F

Location of AalenLocation

Historic Weather in Aalen — Graph

°F

Aalen temperature yesterday

Maximum temperature yesterday: 64 °F (at 5:00 PM)
Minimum temperature yesterday: 51 °F (at 8:00 AM)
Average temperature yesterday: 56 °F

Past Weeks' High & Low Weather Summary

 TemperatureHumidityPressure
High71 °F (Sep 7, 3:00 PM)100% (Sep 3, 9:00 AM)30.18 "Hg (Sep 3, 9:00 AM)
Low47 °F (Sep 11, 7:00 AM)51% (Sep 7, 3:00 PM)29.86 "Hg (Sep 6, 5:00 PM)
Average57 °F88%30.02 "Hg
* Reported Sep 1 11:00 PM — Sep 16 11:00 PM, Aalen, Weather by CustomWeather, © 2014

Note: Actual official high and low records may vary slightly from our data, if they occured in-between our weather recording intervals... More about our weather records

Advertising

Aalen weather history for previous 24 hours

 ConditionsComfort  
Time TempWeatherWind HumidityBarometerVisibility
11:00 PM
Sep 16
55 °FFog.5 mph96%29.98 "Hg2 mi
10:00 PM55 °FFog.5 mph96%29.99 "Hg2 mi
9:00 PM56 °FFog.5 mph95%29.99 "Hg4 mi
8:00 PM58 °FPassing clouds.5 mph92%29.97 "Hg7 mi
7:00 PM61 °FPassing clouds.3 mph83%29.96 "Hg17 mi
6:00 PM63 °FPassing clouds.3 mph77%29.94 "Hg25 mi
5:00 PM64 °FPassing clouds.5 mph76%29.94 "Hg22 mi
4:00 PM63 °FPassing clouds.3 mph77%29.95 "Hg19 mi
3:00 PM63 °FPassing clouds.5 mph82%29.96 "Hg16 mi
2:00 PM59 °FPassing clouds.5 mph85%29.99 "Hg10 mi
1:00 PM57 °FPartly sunny.5 mph92%30.01 "Hg8 mi
12:00 PM55 °FFog.5 mph97%30.02 "Hg1 mi
11:00 AM54 °FFog.3 mph99%30.03 "Hg0 mi
10:00 AM54 °FFog.3 mph100%30.02 "Hg0 mi
9:00 AM52 °FFog.3 mph100%30.02 "Hg0 mi
8:00 AM51 °FFog.3 mph100%30.03 "Hg0 mi
7:00 AM52 °FFog.3 mph100%30.01 "Hg0 mi
6:00 AM53 °FFog.5 mph99%30.01 "Hg2 mi
5:00 AM54 °FFog.3 mph97%30.00 "Hg2 mi
4:00 AM54 °FFog.3 mph95%30.00 "Hg3 mi
3:00 AM54 °FFog.3 mph96%30.01 "Hg2 mi
2:00 AM54 °FFog.5 mph95%30.01 "Hg2 mi
1:00 AM54 °FFog.5 mph94%30.01 "Hg3 mi
12:00 AM54 °FFog.5 mph94%30.02 "Hg4 mi
Weather by CustomWeather, © 2014

See weather overviewHow to use our weather pages